| time (UTC) | temp C | wind direction | speed KPH | gust KPH | rain 1hr cm | rain 24hr cm | rain mn cm | humidity % | barometer mb |
| 20260502213052 | 18 | 282 | 6.4 | 16.1 | 0.00 | 0.00 | 0.00 | 32 | 1011.4 |
| 20260502211553 | 18 | 209 | 6.4 | 27.4 | 0.00 | 0.00 | 0.00 | 33 | 1011.6 |
| 20260502210049 | 18 | 240 | 6.4 | 24.1 | 0.00 | 0.00 | 0.00 | 32 | 1011.9 |
| 20260502204554 | 18 | 254 | 3.2 | 14.5 | 0.00 | 0.00 | 0.00 | 35 | 1012.1 |
| 20260502203106 | 18 | 340 | 4.8 | 12.9 | 0.00 | 0.00 | 0.00 | 31 | 1012.5 |
| 20260502201540 | 18 | 300 | 4.8 | 20.9 | 0.00 | 0.00 | 0.00 | 33 | 1013.0 |
| 20260502200039 | 17 | 257 | 3.2 | 14.5 | 0.00 | 0.00 | 0.00 | 32 | 1013.2 |
| 20260502194535 | 17 | 234 | 3.2 | 16.1 | 0.00 | 0.00 | 0.00 | 32 | 1013.5 |
| 20260502193033 | 17 | 285 | 3.2 | 17.7 | 0.00 | 0.00 | 0.00 | 33 | 1014.3 |
| 20260502191530 | 17 | 229 | 8.0 | 20.9 | 0.00 | 0.00 | 0.00 | 34 | 1014.7 |
| 20260502190028 | 16 | 191 | 4.8 | 14.5 | 0.00 | 0.00 | 0.00 | 33 | 1014.9 |
| 20260502184526 | 16 | 102 | 6.4 | 19.3 | 0.00 | 0.00 | 0.00 | 33 | 1015.2 |
| 20260502183021 | 15 | 148 | 6.4 | 14.5 | 0.00 | 0.00 | 0.00 | 34 | 1015.7 |
| 20260502181519 | 16 | 264 | 4.8 | 19.3 | 0.00 | 0.00 | 0.00 | 35 | 1015.8 |
| 20260502163104 | 13 | 300 | 4.8 | 16.1 | 0.00 | 0.00 | 0.00 | 36 | 1017.6 |
| 20260502161600 | 13 | 295 | 4.8 | 19.3 | 0.00 | 0.00 | 0.00 | 35 | 1017.8 |
| 20260502151601 | 12 | 261 | 3.2 | 16.1 | 0.00 | 0.00 | 0.00 | 42 | 1018.5 |
| 20260502123004 | -17 | 0.0 | 0.0 | 0.00 | 0.00 | 0.00 | 1019.3 | ||
| 20260502121559 | -17 | 0.0 | 0.0 | 0.00 | 0.00 | 0.00 | 1018.8 | ||
| 20260502114554 | -17 | 0.0 | 0.0 | 0.00 | 0.00 | 0.00 | 1018.8 | ||
| 20260502113046 | -17 | 0.0 | 0.0 | 0.00 | 0.00 | 0.00 | 1018.8 | ||
| 20260502111543 | -17 | 0.0 | 0.0 | 0.00 | 0.00 | 0.00 | 1019.1 | ||
| 20260502110042 | -2 | 320 | 0.0 | 0.0 | 0.00 | 0.00 | 0.00 | 86 | 1018.8 |
| 20260502104539 | -1 | 318 | 0.0 | 0.0 | 0.00 | 0.00 | 0.00 | 87 | 1018.6 |
| 20260502103034 | -1 | 318 | 0.0 | 0.0 | 0.00 | 0.00 | 0.00 | 86 | 1019.0 |
| 20260502101537 | 0 | 318 | 0.0 | 0.0 | 0.00 | 0.00 | 0.00 | 85 | 1018.6 |
| 20260502091526 | 0 | 318 | 0.0 | 0.0 | 0.00 | 0.00 | 0.00 | 78 | 1018.6 |
| 20260502071518 | 0 | 318 | 0.0 | 0.0 | 0.00 | 0.00 | 0.00 | 81 | 1019.0 |
| 20260502070017 | 0 | 318 | 0.0 | 0.0 | 0.00 | 0.00 | 0.00 | 80 | 1018.5 |
| 20260502064531 | 0 | 318 | 0.0 | 0.0 | 0.00 | 0.00 | 0.00 | 78 | 1018.9 |
| 20260502063011 | 0 | 318 | 0.0 | 0.0 | 0.00 | 0.00 | 0.00 | 75 | 1018.7 |
| 20260502061508 | 0 | 318 | 0.0 | 0.0 | 0.00 | 0.00 | 0.00 | 73 | 1018.8 |
| 20260502060006 | 1 | 318 | 0.0 | 0.0 | 0.00 | 0.00 | 0.00 | 72 | 1019.2 |
| 20260502054504 | 1 | 318 | 0.0 | 0.0 | 0.00 | 0.00 | 0.00 | 72 | 1018.7 |
| 20260502053003 | 1 | 318 | 0.0 | 0.0 | 0.00 | 0.00 | 0.00 | 72 | 1019.0 |
| 20260502051601 | 1 | 318 | 0.0 | 0.0 | 0.00 | 0.00 | 0.00 | 69 | 1018.8 |
| 20260502050056 | 1 | 318 | 0.0 | 0.0 | 0.00 | 0.00 | 0.00 | 68 | 1018.9 |
| 20260502044554 | 1 | 318 | 0.0 | 0.0 | 0.00 | 0.00 | 0.00 | 67 | 1019.2 |
| 20260502043054 | 2 | 318 | 0.0 | 0.0 | 0.00 | 0.00 | 0.00 | 65 | 1018.8 |
| 20260502041553 | 2 | 318 | 0.0 | 0.0 | 0.00 | 0.00 | 0.00 | 63 | 1019.0 |
| 20260502040104 | 3 | 318 | 0.0 | 0.0 | 0.00 | 0.00 | 0.00 | 62 | 1018.8 |
| 20260502034554 | 3 | 318 | 0.0 | 0.0 | 0.00 | 0.00 | 0.00 | 60 | 1018.8 |
| 20260502033050 | 3 | 318 | 0.0 | 0.0 | 0.00 | 0.00 | 0.00 | 59 | 1019.0 |
| 20260502031602 | 3 | 318 | 0.0 | 0.0 | 0.00 | 0.00 | 0.00 | 56 | 1018.8 |
| 20260502030051 | 4 | 318 | 0.0 | 0.0 | 0.00 | 0.00 | 0.00 | 54 | 1019.2 |
| 20260502024549 | 5 | 318 | 0.0 | 0.0 | 0.00 | 0.00 | 0.00 | 53 | 1018.8 |
| 20260502023053 | 5 | 318 | 0.0 | 0.0 | 0.00 | 0.00 | 0.00 | 52 | 1018.8 |
| 20260502021548 | 6 | 318 | 0.0 | 0.0 | 0.00 | 0.00 | 0.00 | 48 | 1019.1 |
| 20260502020105 | 6 | 318 | 0.0 | 0.0 | 0.00 | 0.00 | 0.00 | 45 | 1018.5 |
| 20260502014552 | 8 | 318 | 0.0 | 0.0 | 0.00 | 0.00 | 0.00 | 42 | 1018.7 |
| 20260502013046 | 9 | 318 | 0.0 | 0.0 | 0.00 | 0.00 | 0.00 | 38 | 1018.1 |
| 20260502011551 | 10 | 318 | 0.0 | 1.6 | 0.00 | 0.00 | 0.00 | 35 | 1018.2 |
| 20260502010045 | 10 | 315 | 0.0 | 4.8 | 0.00 | 0.00 | 0.00 | 34 | 1018.6 |
| 20260502004554 | 11 | 328 | 1.6 | 6.4 | 0.00 | 0.00 | 0.00 | 32 | 1018.5 |
| 20260502003046 | 12 | 346 | 1.6 | 6.4 | 0.00 | 0.00 | 0.00 | 30 | 1018.5 |
| 20260502001621 | 11 | 315 | 0.0 | 4.8 | 0.00 | 0.00 | 0.00 | 29 | 1018.1 |
| 20260502000042 | 11 | 312 | 0.0 | 3.2 | 0.00 | 0.00 | 0.00 | 31 | 1018.5 |
| 20260501234541 | 11 | 324 | 4.8 | 11.3 | 0.00 | 0.00 | 0.00 | 30 | 1018.6 |
| 20260501233041 | 12 | 236 | 0.0 | 9.7 | 0.00 | 0.00 | 0.00 | 29 | 1018.6 |
| 20260501231540 | 12 | 338 | 4.8 | 11.3 | 0.00 | 0.00 | 0.00 | 30 | 1018.6 |
| 20260501230040 | 12 | 336 | 0.0 | 8.0 | 0.00 | 0.00 | 0.00 | 29 | 1018.5 |
| 20260501224551 | 11 | 281 | 0.0 | 6.4 | 0.00 | 0.00 | 0.00 | 29 | 1018.7 |
| 20260501223038 | 12 | 322 | 4.8 | 12.9 | 0.00 | 0.00 | 0.00 | 29 | 1018.7 |
| 20260501221534 | 12 | 326 | 4.8 | 16.1 | 0.00 | 0.00 | 0.00 | 29 | 1018.8 |
| 20260501220037 | 11 | 297 | 4.8 | 8.0 | 0.00 | 0.00 | 0.00 | 31 | 1018.8 |
| 20260501214532 | 11 | 5 | 3.2 | 9.7 | 0.00 | 0.00 | 0.00 | 32 | 1018.8 |